• In Hungary
  • List of Countries
  • For 7 days
  • Water Temperature
  • Satellite Maps
  • Weather Map
  • News
  • Weather Widgets
  • user-avatar
    Login

    Hourly Weather Konce

    Today, 18 July, Wednesday

    Time Temperature Precipitation Wind Pressure Humidity
    00:00 +16°C° 0 mm 2 mps 693 mmHg 85%
    01:00 +16°C° 0 mm 3 mps 693 mmHg 86%
    02:00 +14°C° 0 mm 3 mps 693 mmHg 87%
    03:00 +14°C° 0 mm 3 mps 693 mmHg 87%
    04:00 +14°C° 0 mm 2 mps 693 mmHg 88%
    05:00 +16°C° 0 mm 3 mps 693 mmHg 80%
    06:00 +18°C° 0 mm 3 mps 694 mmHg 72%
    07:00 +20°C° 0 mm 4 mps 694 mmHg 61%
    08:00 +22°C° 0 mm 4 mps 694 mmHg 54%
    09:00 +25°C° 0 mm 5 mps 695 mmHg 46%
    10:00 +27°C° 0 mm 5 mps 695 mmHg 39%
    11:00 +27°C° 0 mm 5 mps 695 mmHg 37%
    12:00 +28°C° 0 mm 6 mps 695 mmHg 34%
    13:00 +29°C° 0 mm 6 mps 695 mmHg 32%
    14:00 +29°C° 0 mm 6 mps 695 mmHg 33%
    15:00 +28°C° 0 mm 6 mps 695 mmHg 34%
    16:00 +28°C° 0 mm 6 mps 694 mmHg 34%
    17:00 +26°C° 0 mm 5 mps 694 mmHg 39%
    18:00 +23°C° 0 mm 4 mps 694 mmHg 44%
    19:00 +21°C° 0 mm 3 mps 694 mmHg 49%
    20:00 +20°C° 0 mm 3 mps 694 mmHg 54%
    21:00 +18°C° 0 mm 2 mps 694 mmHg 59%
    22:00 +17°C° 0 mm 2 mps 694 mmHg 65%
    23:00 +16°C° 0 mm 2 mps 694 mmHg 67%

    Tomorrow, 19 July, Thursday

    Time Temperature Precipitation Wind Pressure Humidity
    00:00 +16°C° 0 mm 2 mps 694 mmHg 69%
    01:00 +15°C° 0 mm 2 mps 694 mmHg 71%
    02:00 +15°C° 0 mm 2 mps 694 mmHg 72%
    03:00 +15°C° 0 mm 2 mps 693 mmHg 73%
    04:00 +15°C° 0 mm 2 mps 693 mmHg 74%
    05:00 +16°C° 0 mm 2 mps 693 mmHg 68%
    06:00 +18°C° 0 mm 3 mps 694 mmHg 61%
    07:00 +20°C° 0 mm 4 mps 694 mmHg 55%
    08:00 +20°C° 0 mm 4 mps 694 mmHg 55%
    09:00 +21°C° 0 mm 4 mps 694 mmHg 54%
    10:00 +21°C° 0 mm 4 mps 694 mmHg 54%
    11:00 +21°C° 0 mm 5 mps 695 mmHg 53%
    12:00 +22°C° 0 mm 5 mps 695 mmHg 52%
    13:00 +23°C° 0 mm 5 mps 695 mmHg 51%
    14:00 +23°C° 0 mm 5 mps 695 mmHg 52%
    15:00 +23°C° 0 mm 5 mps 695 mmHg 53%
    16:00 +22°C° 0 mm 5 mps 695 mmHg 53%
    17:00 +21°C° 0 mm 5 mps 695 mmHg 58%
    18:00 +20°C° 0 mm 4 mps 695 mmHg 63%
    19:00 +18°C° 0 mm 3 mps 695 mmHg 68%
    20:00 +18°C° 0 mm 3 mps 695 mmHg 72%
    21:00 +17°C° 0 mm 3 mps 695 mmHg 75%
    22:00 +16°C° 0 mm 2 mps 695 mmHg 78%
    23:00 +16°C° 0 mm 2 mps 695 mmHg 80%

    Day after tomorrow, 20 July, Friday

    Time Temperature Precipitation Wind Pressure Humidity
    00:00 +16°C° 0 mm 2 mps 695 mmHg 82%
    01:00 +16°C° 0 mm 2 mps 695 mmHg 83%
    02:00 +15°C° 0 mm 2 mps 695 mmHg 84%
    03:00 +15°C° 0 mm 2 mps 695 mmHg 85%
    04:00 +15°C° 0 mm 2 mps 695 mmHg 85%
    05:00 +17°C° 0 mm 3 mps 695 mmHg 78%
    06:00 +19°C° 0 mm 3 mps 696 mmHg 70%
    07:00 +21°C° 0 mm 4 mps 696 mmHg 62%
    08:00 +23°C° 0 mm 4 mps 696 mmHg 56%
    09:00 +25°C° 0 mm 4 mps 697 mmHg 50%
    10:00 +27°C° 0 mm 4 mps 697 mmHg 45%
    11:00 +28°C° 0 mm 4 mps 697 mmHg 42%
    12:00 +29°C° 0 mm 4 mps 697 mmHg 39%
    13:00 +30°C° 0 mm 5 mps 697 mmHg 36%
    14:00 +30°C° 0 mm 5 mps 697 mmHg 37%
    15:00 +30°C° 0 mm 5 mps 696 mmHg 37%
    16:00 +29°C° 0 mm 4 mps 696 mmHg 37%
    17:00 +27°C° 0 mm 4 mps 696 mmHg 43%
    18:00 +25°C° 0 mm 3 mps 696 mmHg 48%
    19:00 +22°C° 0 mm 3 mps 696 mmHg 54%
    20:00 +21°C° 0 mm 2 mps 696 mmHg 59%
    21:00 +20°C° 0 mm 2 mps 696 mmHg 65%
    22:00 +18°C° 0 mm 2 mps 696 mmHg 70%
    23:00 +17°C° 0 mm 2 mps 696 mmHg 73%

    21 July, Saturday

    Time Temperature Precipitation Wind Pressure Humidity
    00:00 +17°C° 0 mm 2 mps 696 mmHg 77%
    01:00 +16°C° 0 mm 2 mps 696 mmHg 80%
    02:00 +15°C° 0 mm 2 mps 696 mmHg 80%
    03:00 +15°C° 0 mm 2 mps 696 mmHg 80%
    04:00 +14°C° 0 mm 2 mps 696 mmHg 81%
    05:00 +17°C° 0 mm 2 mps 696 mmHg 70%
    06:00 +19°C° 0 mm 2 mps 696 mmHg 59%
    07:00 +23°C° 0 mm 2 mps 697 mmHg 49%
    08:00 +25°C° 0 mm 2 mps 697 mmHg 41%
    09:00 +27°C° 0 mm 2 mps 697 mmHg 33%
    10:00 +29°C° 0 mm 3 mps 698 mmHg 26%
    11:00 +30°C° 0 mm 3 mps 697 mmHg 24%
    12:00 +31°C° 0 mm 3 mps 697 mmHg 22%
    13:00 +34°C° 0 mm 3 mps 697 mmHg 19%
    14:00 +34°C° 0 mm 3 mps 697 mmHg 20%
    15:00 +34°C° 0 mm 3 mps 697 mmHg 21%
    16:00 +34°C° 0 mm 3 mps 697 mmHg 21%
    17:00 +30°C° 0 mm 2 mps 696 mmHg 26%
    18:00 +28°C° 0 mm 2 mps 696 mmHg 31%
    19:00 +25°C° 0 mm 1 mps 696 mmHg 36%
    20:00 +24°C° 0 mm 1 mps 696 mmHg 38%
    21:00 +23°C° 0 mm 1 mps 696 mmHg 41%
    22:00 +21°C° 0 mm 2 mps 696 mmHg 43%
    23:00 +21°C° 0 mm 1 mps 695 mmHg 45%

    22 July, Sunday

    Time Temperature Precipitation Wind Pressure Humidity
    00:00 +20°C° 0 mm 1 mps 695 mmHg 47%
    01:00 +20°C° 0 mm 1 mps 695 mmHg 48%
    02:00 +19°C° 0 mm 1 mps 695 mmHg 50%
    03:00 +19°C° 0 mm 1 mps 695 mmHg 51%
    04:00 +18°C° 0 mm 1 mps 695 mmHg 52%
    05:00 +21°C° 0 mm 1 mps 695 mmHg 47%
    06:00 +23°C° 0 mm 1 mps 695 mmHg 43%
    07:00 +26°C° 0 mm 1 mps 695 mmHg 38%
    08:00 +28°C° 0 mm 1 mps 695 mmHg 34%
    09:00 +30°C° 0 mm 1 mps 695 mmHg 29%
    10:00 +32°C° 0 mm 1 mps 695 mmHg 25%
    11:00 +34°C° 0 mm 2 mps 695 mmHg 24%
    12:00 +35°C° 0 mm 2 mps 694 mmHg 22%
    13:00 +36°C° 0 mm 3 mps 694 mmHg 21%
    14:00 +35°C° 0.2 mm 3 mps 693 mmHg 23%
    15:00 +34°C° 0.2 mm 3 mps 693 mmHg 26%
    16:00 +34°C° 0.2 mm 3 mps 692 mmHg 29%
    17:00 +30°C° 0.5 mm 3 mps 692 mmHg 38%
    18:00 +27°C° 0.5 mm 2 mps 691 mmHg 47%
    19:00 +24°C° 0.5 mm 2 mps 691 mmHg 57%
    20:00 +21°C° 0.8 mm 2 mps 691 mmHg 63%
    21:00 +21°C° 0.8 mm 1 mps 691 mmHg 69%
    22:00 +20°C° 0.8 mm 1 mps 691 mmHg 75%
    23:00 +19°C° 0.1 mm 1 mps 691 mmHg 77%

    23 July, Monday

    Time Temperature Precipitation Wind Pressure Humidity
    00:00 +18°C° 0.1 mm 2 mps 690 mmHg 79%
    01:00 +17°C° 0.1 mm 2 mps 690 mmHg 81%
    02:00 +17°C° 0 mm 2 mps 690 mmHg 83%
    03:00 +16°C° 0 mm 2 mps 690 mmHg 85%
    04:00 +16°C° 0 mm 2 mps 690 mmHg 87%
    05:00 +17°C° 0 mm 3 mps 690 mmHg 81%
    06:00 +19°C° 0 mm 3 mps 691 mmHg 74%
    07:00 +20°C° 0 mm 3 mps 691 mmHg 68%
    08:00 +22°C° 0 mm 4 mps 691 mmHg 61%
    09:00 +25°C° 0 mm 4 mps 691 mmHg 53%
    10:00 +27°C° 0 mm 4 mps 691 mmHg 46%
    11:00 +28°C° 0 mm 4 mps 691 mmHg 43%
    12:00 +28°C° 0 mm 4 mps 691 mmHg 40%
    13:00 +29°C° 0 mm 4 mps 691 mmHg 37%
    14:00 +29°C° 0.1 mm 3 mps 691 mmHg 38%
    15:00 +29°C° 0.1 mm 3 mps 691 mmHg 39%
    16:00 +29°C° 0.1 mm 3 mps 691 mmHg 39%
    17:00 +27°C° 0.2 mm 3 mps 691 mmHg 46%
    18:00 +25°C° 0.2 mm 3 mps 691 mmHg 52%
    19:00 +23°C° 0.2 mm 2 mps 690 mmHg 59%
    20:00 +21°C° 0.5 mm 2 mps 691 mmHg 65%
    21:00 +19°C° 0.5 mm 2 mps 691 mmHg 72%
    22:00 +18°C° 0.5 mm 2 mps 691 mmHg 78%
    23:00 +18°C° 0.6 mm 2 mps 691 mmHg 81%
    Show more